Stations météo

réclame
Mon MeteoGroup
Threave, Grande-Bretagne (99090): Température de l'air & dewpoint: 11.10.2018 06:00:00 - 17.10.2018 06:00:00 (BST)Threave, Grande-Bretagne (99090): Température de l'air -20cm & Température de l'air -100cm: 11.10.2018 06:00:00 - 17.10.2018 06:00:00 (BST)Threave, Grande-Bretagne (99090): Quantités de précipitations: 11.10.2018 06:00:00 - 17.10.2018 06:00:00 (BST)
Date & Time tt [°C] td [°C] tt -20cm [°C] tt -100cm [°C] rr [mm]
17.10.2018 06:00:00 9,8 8,9 - - 0,0
17.10.2018 05:00:00 10,0 9,3 - - 0,0
17.10.2018 04:00:00 10,8 10,5 - - 0,0
17.10.2018 03:00:00 10,5 10,3 - - 0,0
17.10.2018 02:00:00 9,3 8,9 - - 0,0
17.10.2018 01:00:00 10,0 9,6 - - 0,0
17.10.2018 00:00:00 10,4 9,8 - - 0,0
16.10.2018 23:00:00 12,0 11,4 - - 0,0
16.10.2018 22:00:00 12,7 12,1 - - 0,0
16.10.2018 21:00:00 12,9 12,2 - - 0,0
16.10.2018 20:00:00 12,8 12,3 - - 0,0
16.10.2018 19:00:00 12,7 12,1 - - 0,0
16.10.2018 18:00:00 12,5 11,9 - - 0,4
16.10.2018 17:00:00 12,3 11,9 - - 1,8
16.10.2018 16:00:00 12,0 11,5 - - 1,6
16.10.2018 15:00:00 11,6 10,6 - - 0,6
16.10.2018 14:00:00 13,2 10,7 - - 0,0
16.10.2018 13:00:00 14,0 11,8 - - 0,0
16.10.2018 12:00:00 13,4 12,0 - - 0,0
16.10.2018 11:00:00 13,2 11,7 - - 0,0
16.10.2018 10:00:00 12,3 11,4 11,4 12,5 0,0
16.10.2018 09:00:00 11,8 11,2 - - 0,4
16.10.2018 08:00:00 11,2 10,8 - - 0,4
16.10.2018 07:00:00 10,7 10,5 - - 0,2
16.10.2018 06:00:00 8,0 7,7 - - 0,2
16.10.2018 05:00:00 7,4 7,0 - - 0,0
16.10.2018 04:00:00 7,1 6,8 - - 0,0
16.10.2018 03:00:00 6,8 6,6 - - 0,0
16.10.2018 02:00:00 6,0 5,8 - - 0,0
16.10.2018 01:00:00 5,6 5,4 - - 0,0
16.10.2018 00:00:00 4,5 4,3 - - 0,0
15.10.2018 23:00:00 2,7 2,1 - - 0,0
15.10.2018 22:00:00 4,2 3,8 - - 0,0
15.10.2018 21:00:00 4,2 3,5 - - 0,0
15.10.2018 20:00:00 4,5 3,1 - - 0,0
15.10.2018 19:00:00 6,0 4,4 - - 0,0
15.10.2018 18:00:00 8,8 3,7 - - 0,0
15.10.2018 17:00:00 12,7 4,8 - - 0,0
15.10.2018 16:00:00 12,8 5,1 - - 0,0
15.10.2018 15:00:00 12,3 3,4 - - 0,0
15.10.2018 14:00:00 13,6 7,1 - - 0,0
15.10.2018 13:00:00 10,8 7,7 - - 0,0
15.10.2018 12:00:00 8,2 8,0 - - 0,0
15.10.2018 11:00:00 6,7 6,7 - - 0,0
15.10.2018 10:00:00 5,0 4,9 11,9 12,7 0,0
15.10.2018 09:00:00 4,0 3,9 - - 0,0
15.10.2018 08:00:00 3,3 3,2 - - 0,0
15.10.2018 07:00:00 3,1 3,0 - - 0,0
15.10.2018 06:00:00 2,8 2,7 - - 0,0
15.10.2018 05:00:00 2,6 2,4 - - 0,0
15.10.2018 04:00:00 1,9 1,7 - - 0,0
15.10.2018 03:00:00 2,5 2,4 - - 0,0
15.10.2018 02:00:00 2,4 2,1 - - 0,0
15.10.2018 01:00:00 3,2 3,0 - - 0,0
15.10.2018 00:00:00 3,3 3,0 - - 0,0
14.10.2018 23:00:00 3,7 3,2 - - 0,0
14.10.2018 22:00:00 4,4 3,9 - - 0,0
14.10.2018 21:00:00 4,9 4,1 - - 0,0
14.10.2018 20:00:00 6,5 5,4 - - 0,0
14.10.2018 19:00:00 7,6 5,9 - - 0,0
14.10.2018 18:00:00 9,7 6,8 - - 0,0
14.10.2018 17:00:00 11,6 6,6 - - 0,0
14.10.2018 16:00:00 13,8 3,9 - - 0,0
14.10.2018 15:00:00 13,1 6,2 - - 0,0
14.10.2018 14:00:00 12,0 7,9 - - 0,0
14.10.2018 13:00:00 10,0 8,3 - - 0,2
14.10.2018 12:00:00 8,9 8,2 - - 0,0
14.10.2018 11:00:00 8,4 8,0 - - 0,0
14.10.2018 10:00:00 7,8 7,5 12,7 12,7 0,0
14.10.2018 09:00:00 7,3 6,9 - - 0,0
14.10.2018 08:00:00 7,2 6,7 - - 0,0
14.10.2018 07:00:00 7,1 6,4 - - 0,0
14.10.2018 06:00:00 6,8 6,1 - - 0,0
14.10.2018 05:00:00 7,3 6,0 - - 0,0
14.10.2018 04:00:00 9,4 7,2 - - 0,0
14.10.2018 03:00:00 9,3 7,7 - - 0,0
14.10.2018 02:00:00 9,9 8,7 - - 0,0
14.10.2018 01:00:00 10,0 8,8 - - 0,2
14.10.2018 00:00:00 10,4 9,3 - - 0,0
13.10.2018 23:00:00 11,1 10,0 - - 0,0
13.10.2018 22:00:00 12,2 11,7 - - 0,2
13.10.2018 21:00:00 12,8 12,0 - - 0,0
13.10.2018 20:00:00 13,7 12,9 - - 0,0
13.10.2018 19:00:00 14,5 13,7 - - 0,8
13.10.2018 18:00:00 15,1 14,3 - - 1,8
13.10.2018 17:00:00 15,3 14,4 - - 0,2
13.10.2018 16:00:00 15,5 14,9 - - 1,0
13.10.2018 15:00:00 13,3 12,9 - - 1,0
13.10.2018 14:00:00 13,1 12,5 - - 0,8
13.10.2018 13:00:00 13,1 12,6 - - 1,4
13.10.2018 12:00:00 13,1 12,7 - - 4,0
13.10.2018 11:00:00 12,9 12,4 - - 3,8
13.10.2018 10:00:00 12,9 12,3 12,4 12,7 2,6
13.10.2018 09:00:00 13,2 12,6 - - 3,0
13.10.2018 08:00:00 13,6 13,2 - - 3,0
13.10.2018 07:00:00 12,5 12,0 - - 2,4
13.10.2018 06:00:00 12,5 11,9 - - 2,0
13.10.2018 05:00:00 12,8 12,1 - - 0,6
13.10.2018 04:00:00 13,1 12,4 - - 0,6
13.10.2018 03:00:00 13,1 12,0 - - 0,0
13.10.2018 02:00:00 13,1 11,8 - - 0,0
13.10.2018 01:00:00 13,4 11,7 - - 0,0
13.10.2018 00:00:00 13,1 11,9 - - 0,0
12.10.2018 23:00:00 13,0 11,5 - - 0,0
12.10.2018 22:00:00 13,2 11,3 - - 0,0
12.10.2018 21:00:00 13,1 11,8 - - 0,0
12.10.2018 20:00:00 12,8 12,0 - - 0,0
12.10.2018 19:00:00 12,3 11,7 - - 0,0
12.10.2018 18:00:00 12,1 11,6 - - 1,4
12.10.2018 17:00:00 12,2 11,8 - - 2,2
12.10.2018 16:00:00 11,6 11,2 - - 6,4
12.10.2018 15:00:00 11,9 11,2 - - 8,2
12.10.2018 14:00:00 13,3 12,4 - - 5,4
12.10.2018 13:00:00 14,1 11,3 - - 0,4
12.10.2018 12:00:00 15,4 13,2 - - 0,0
12.10.2018 11:00:00 15,2 12,6 - - 0,0
12.10.2018 10:00:00 14,7 12,7 12,4 12,7 0,0
12.10.2018 09:00:00 13,8 12,3 - - 0,0
12.10.2018 08:00:00 13,4 11,6 - - 0,2
12.10.2018 07:00:00 12,0 10,7 - - 0,6
12.10.2018 06:00:00 11,6 10,2 - - 3,4
12.10.2018 05:00:00 12,0 9,3 - - 0,0
12.10.2018 04:00:00 10,4 8,4 - - 0,0
12.10.2018 03:00:00 10,5 8,9 - - 0,0
12.10.2018 02:00:00 10,3 9,3 - - 0,0
12.10.2018 01:00:00 10,6 9,9 - - 0,0
12.10.2018 00:00:00 9,6 9,1 - - 0,2
11.10.2018 23:00:00 8,6 8,2 - - 0,0
11.10.2018 22:00:00 9,8 9,3 - - 0,0
11.10.2018 21:00:00 9,7 9,2 - - 0,0
11.10.2018 20:00:00 10,5 9,8 - - 0,0
11.10.2018 19:00:00 10,9 10,2 - - 1,4
11.10.2018 18:00:00 11,4 10,5 - - 1,2
11.10.2018 17:00:00 11,9 10,9 - - 0,8
11.10.2018 16:00:00 13,0 11,5 - - 3,8
11.10.2018 15:00:00 15,7 12,3 - - 0,0
11.10.2018 14:00:00 14,8 12,7 - - 0,0
11.10.2018 13:00:00 16,4 12,8 - - 0,0
11.10.2018 12:00:00 16,7 13,4 - - 0,0
11.10.2018 11:00:00 15,4 12,7 - - 0,0
11.10.2018 10:00:00 15,3 12,8 12,7 12,7 0,0
11.10.2018 09:00:00 15,2 13,0 - - 0,0
11.10.2018 08:00:00 14,2 12,9 - - 0,0
11.10.2018 07:00:00 12,2 11,4 - - 0,0
11.10.2018 06:00:00 11,0 10,5 - - 0,0

tt = Température de l'air
td = dewpoint
tt -20cm = Température de l'air -20cm
tt -100cm = Température de l'air -100cm
rr = Quantités de précipitations

stations d'obs. à proximité